| time (UTC) | temp F | wind direction | speed MPH | gust MPH | rain 1hr in | rain 24hr in | rain mn in | humidity % | barometer mb |
| 20260502221543 | 50 | 143 | 2.0 | 7.0 | 0.00 | 0.00 | 0.00 | 93 | 1010.7 |
| 20260502220046 | 50 | 180 | 1.0 | 5.0 | 0.00 | 0.00 | 0.00 | 93 | 1010.6 |
| 20260502214539 | 50 | 153 | 2.0 | 6.0 | 0.00 | 0.00 | 0.00 | 93 | 1010.7 |
| 20260502213054 | 50 | 173 | 2.0 | 6.0 | 0.00 | 0.00 | 0.00 | 92 | 1010.7 |
| 20260502211538 | 50 | 0 | 1.0 | 5.0 | 0.00 | 0.00 | 0.00 | 93 | 1010.7 |
| 20260502210039 | 50 | 184 | 0.0 | 5.0 | 0.00 | 0.00 | 0.00 | 92 | 1010.8 |
| 20260502204539 | 50 | 178 | 2.0 | 8.0 | 0.00 | 0.00 | 0.00 | 91 | 1010.9 |
| 20260502203045 | 50 | 184 | 4.0 | 8.0 | 0.00 | 0.00 | 0.00 | 90 | 1010.9 |
| 20260502201541 | 50 | 142 | 2.0 | 6.0 | 0.00 | 0.00 | 0.00 | 89 | 1011.2 |
| 20260502194549 | 50 | 152 | 3.0 | 8.0 | 0.00 | 0.00 | 0.00 | 89 | 1011.3 |
| 20260502193037 | 50 | 190 | 4.0 | 13.0 | 0.00 | 0.00 | 0.00 | 89 | 1011.5 |
| 20260502191536 | 51 | 174 | 2.0 | 9.0 | 0.00 | 0.00 | 0.00 | 89 | 1011.7 |
| 20260502190046 | 51 | 165 | 4.0 | 9.0 | 0.00 | 0.00 | 0.00 | 88 | 1012.0 |
| 20260502184540 | 51 | 157 | 4.0 | 8.0 | 0.00 | 0.00 | 0.00 | 88 | 1012.0 |
| 20260502183045 | 52 | 159 | 3.0 | 9.0 | 0.00 | 0.00 | 0.00 | 88 | 1012.1 |
| 20260502181537 | 52 | 193 | 2.0 | 10.0 | 0.00 | 0.00 | 0.00 | 87 | 1012.0 |
| 20260502163052 | 52 | 126 | 2.0 | 13.0 | 0.00 | 0.00 | 0.00 | 84 | 1012.1 |
| 20260502161547 | 52 | 196 | 3.0 | 9.0 | 0.00 | 0.00 | 0.00 | 83 | 1012.3 |
| 20260502151537 | 52 | 202 | 3.0 | 9.0 | 0.00 | 0.00 | 0.00 | 83 | 1013.0 |
| 20260502123038 | 50 | 226 | 3.0 | 9.0 | 0.00 | 0.00 | 0.00 | 86 | 1013.2 |
| 20260502121537 | 50 | 221 | 3.0 | 9.0 | 0.00 | 0.00 | 0.00 | 87 | 1013.0 |
| 20260502114543 | 49 | 243 | 3.0 | 10.0 | 0.00 | 0.00 | 0.00 | 87 | 1013.0 |
| 20260502113054 | 49 | 186 | 4.0 | 12.0 | 0.00 | 0.00 | 0.00 | 87 | 1012.9 |
| 20260502111543 | 48 | 178 | 3.0 | 12.0 | 0.00 | 0.00 | 0.00 | 88 | 1012.7 |
| 20260502110037 | 48 | 188 | 4.0 | 8.0 | 0.00 | 0.00 | 0.00 | 88 | 1012.6 |
| 20260502104536 | 48 | 204 | 3.0 | 8.0 | 0.00 | 0.00 | 0.00 | 88 | 1012.8 |
| 20260502103059 | 48 | 184 | 2.0 | 7.0 | 0.00 | 0.00 | 0.00 | 88 | 1012.4 |
| 20260502101550 | 47 | 229 | 3.0 | 7.0 | 0.00 | 0.00 | 0.00 | 88 | 1012.3 |
| 20260502070040 | 47 | 223 | 1.0 | 4.0 | 0.00 | 0.00 | 0.00 | 79 | 1012.1 |
| 20260502064539 | 48 | 200 | 1.0 | 3.0 | 0.00 | 0.00 | 0.00 | 78 | 1012.1 |
| 20260502063045 | 48 | 206 | 1.0 | 6.0 | 0.00 | 0.00 | 0.00 | 78 | 1012.2 |
| 20260502061543 | 48 | 193 | 1.0 | 5.0 | 0.00 | 0.00 | 0.00 | 76 | 1012.5 |
| 20260502060039 | 48 | 223 | 2.0 | 7.0 | 0.00 | 0.00 | 0.00 | 77 | 1012.5 |
| 20260502054553 | 49 | 213 | 2.0 | 7.0 | 0.00 | 0.00 | 0.00 | 78 | 1012.5 |
| 20260502053046 | 49 | 226 | 2.0 | 6.0 | 0.00 | 0.00 | 0.00 | 78 | 1012.7 |
| 20260502051538 | 49 | 221 | 2.0 | 7.0 | 0.00 | 0.00 | 0.00 | 77 | 1012.8 |
| 20260502050038 | 49 | 212 | 2.0 | 7.0 | 0.00 | 0.00 | 0.00 | 76 | 1012.7 |
| 20260502044538 | 49 | 212 | 3.0 | 8.0 | 0.00 | 0.00 | 0.00 | 75 | 1012.8 |
| 20260502043038 | 49 | 189 | 1.0 | 8.0 | 0.00 | 0.00 | 0.00 | 76 | 1012.8 |
| 20260502041543 | 49 | 248 | 1.0 | 4.0 | 0.00 | 0.00 | 0.00 | 76 | 1012.7 |
| 20260502040049 | 49 | 234 | 1.0 | 7.0 | 0.00 | 0.00 | 0.00 | 76 | 1012.8 |
| 20260502034547 | 49 | 225 | 0.0 | 5.0 | 0.00 | 0.00 | 0.00 | 77 | 1012.8 |
| 20260502033041 | 49 | 0 | 0.0 | 4.0 | 0.00 | 0.00 | 0.00 | 77 | 1012.8 |
| 20260502031538 | 49 | 200 | 0.0 | 3.0 | 0.00 | 0.00 | 0.00 | 77 | 1012.8 |
| 20260502030044 | 49 | 174 | 0.0 | 2.0 | 0.00 | 0.00 | 0.00 | 77 | 1012.9 |
| 20260502024537 | 49 | 192 | 1.0 | 4.0 | 0.00 | 0.00 | 0.00 | 77 | 1012.7 |
| 20260502023040 | 49 | 226 | 2.0 | 7.0 | 0.00 | 0.00 | 0.00 | 77 | 1012.5 |
| 20260502021538 | 49 | 192 | 2.0 | 6.0 | 0.00 | 0.00 | 0.00 | 76 | 1012.6 |
| 20260502020037 | 49 | 254 | 0.0 | 4.0 | 0.00 | 0.00 | 0.00 | 76 | 1012.7 |
| 20260502014538 | 49 | 230 | 2.0 | 5.0 | 0.00 | 0.00 | 0.00 | 77 | 1012.7 |
| 20260502013037 | 49 | 189 | 1.0 | 5.0 | 0.00 | 0.00 | 0.00 | 78 | 1012.5 |
| 20260502011542 | 49 | 171 | 2.0 | 4.0 | 0.00 | 0.00 | 0.00 | 77 | 1012.3 |
| 20260502010047 | 50 | 190 | 1.0 | 5.0 | 0.00 | 0.00 | 0.00 | 76 | 1012.1 |
| 20260502004537 | 50 | 186 | 1.0 | 6.0 | 0.00 | 0.00 | 0.00 | 75 | 1011.9 |
| 20260502003037 | 50 | 201 | 1.0 | 5.0 | 0.00 | 0.00 | 0.00 | 74 | 1011.6 |
| 20260502001537 | 51 | 199 | 2.0 | 6.0 | 0.00 | 0.00 | 0.00 | 73 | 1011.4 |
| 20260502000043 | 51 | 188 | 2.0 | 7.0 | 0.00 | 0.00 | 0.00 | 72 | 1011.1 |
| 20260501234538 | 53 | 207 | 3.0 | 10.0 | 0.00 | 0.00 | 0.00 | 67 | 1010.9 |
| 20260501233055 | 53 | 200 | 4.0 | 12.0 | 0.00 | 0.00 | 0.00 | 67 | 1010.7 |
| 20260501231545 | 54 | 180 | 4.0 | 8.0 | 0.00 | 0.00 | 0.00 | 67 | 1010.3 |
| 20260501230046 | 55 | 184 | 4.0 | 8.0 | 0.00 | 0.00 | 0.00 | 64 | 1010.2 |
| 20260501224548 | 56 | 201 | 3.0 | 8.0 | 0.00 | 0.00 | 0.00 | 65 | 1010.1 |
| 20260501223049 | 57 | 213 | 5.0 | 13.0 | 0.00 | 0.00 | 0.00 | 59 | 1009.9 |